Weather History for St. Joseph, MO

Change the Weather History Date:

Saturday, November 19, 2011

  Actual Average Record
Temperature  
Mean Temperature 50 °F 40 °F  
Max Temperature 69 °F 51 °F 78 °F (1942)
Min Temperature 31 °F 30 °F 7 °F (1914)
Degree Days  
Heating Degree Days 15 25  
Month to date heating degree days 345 388  
Since 1 July heating degree days 684 807  
Cooling Degree Days 0 0  
Month to date cooling degree days 0 0  
Year to date cooling degree days 494 1220  
Moisture  
Dew Point 38 °F    
Average Humidity 64    
Maximum Humidity 82    
Minimum Humidity 45    
Precipitation  
Precipitation 0.00 in 0.05 in 1.85 in (1930)
Month to date precipitation 3.40 1.11  
Year to date precipitation 17.35 33.64  
Sea Level Pressure  
Sea Level Pressure 29.76 in    
Wind  
Wind Speed 18 mph (WSW)    
Max Wind Speed 30 mph    
Max Gust Speed 37 mph    
Visibility 10 miles    
Events      
T = Trace of Precipitation, MM = Missing Value Source: NWS Daily Summary

Daily Weather History Graph

Daily Weather History Graph

Search for Another Location

Airport:

Trip Planner

Search our weather history database for the weather conditions in past years. The results will help you decide how hot, cold, wet, or windy it might be!

Date:

Astronomy

Nov. 19, 2011 Rise Set
Actual Time 7:08 AM CST 5:01 PM CST
Civil Twilight 6:39 AM CST 5:30 PM CST
Nautical Twilight 6:06 AM CST 6:03 PM CST
Astronomical Twilight 5:34 AM CST 6:35 PM CST
Moon 12:30 AM CST (11/19) 1:18 PM CST (11/19)
Length of Visible Light 10h 50m
Length of Day
9h 52m
Last Quarter, 38% of the Moon is Illuminated
Nov 19
Last Quarter
Nov 25
New
Dec 2
First Quarter
Dec 10
Full
Dec 17
Last Quarter

Hourly Weather History & Observations

Time (CST) Temp. Windchill Dew Point Humidity Pressure Visibility Wind Dir Wind Speed Gust Speed Precip Events Conditions
12:53 AM 48.9 °F - 37.9 °F 66% 29.72 in 10.0 mi South 10.4 mph - N/A   Clear
1:53 AM 50.0 °F - 39.0 °F 66% 29.68 in 10.0 mi South 12.7 mph 21.9 mph N/A   Mostly Cloudy
2:53 AM 50.0 °F - 37.4 °F 62% 29.67 in 10.0 mi South 13.8 mph 20.7 mph N/A   Overcast
3:53 AM 52.0 °F - 39.0 °F 61% 29.64 in 10.0 mi South 12.7 mph - N/A   Overcast
4:53 AM 53.1 °F - 41.0 °F 64% 29.62 in 10.0 mi South 15.0 mph - N/A   Overcast
5:53 AM 54.0 °F - 43.0 °F 66% 29.60 in 10.0 mi South 16.1 mph - N/A   Overcast
6:53 AM 55.0 °F - 45.0 °F 69% 29.60 in 10.0 mi South 16.1 mph - N/A   Overcast
7:53 AM 55.0 °F - 46.0 °F 72% 29.58 in 10.0 mi South 16.1 mph - N/A   Overcast
8:53 AM 57.2 °F - 48.2 °F 72% 29.58 in 10.0 mi South 15.0 mph - N/A   Mostly Cloudy
9:53 AM 62.1 °F - 51.1 °F 67% 29.57 in 10.0 mi SSW 23.0 mph 35.7 mph N/A   Mostly Cloudy
10:53 AM 63.0 °F - 51.1 °F 65% 29.57 in 10.0 mi SSW 23.0 mph 29.9 mph N/A   Overcast
11:53 AM 64.9 °F - 52.0 °F 63% 29.56 in 10.0 mi SSW 18.4 mph 24.2 mph N/A   Overcast
12:53 PM 68.0 °F - 46.4 °F 46% 29.57 in 10.0 mi SW 20.7 mph 33.4 mph N/A   Overcast
1:53 PM 66.9 °F - 45.0 °F 45% 29.61 in 10.0 mi West 23.0 mph 33.4 mph 0.01 in   Clear
2:53 PM 53.1 °F - 41.0 °F 64% 29.71 in 10.0 mi WNW 23.0 mph 32.2 mph N/A   Clear
3:43 PM 42.8 °F 33.1 °F 33.8 °F 70% 29.80 in 10.0 mi NW 25.3 mph 31.1 mph N/A   Mostly Cloudy
3:53 PM 41.0 °F 30.9 °F 33.1 °F 73% 29.82 in 9.0 mi NW 24.2 mph 29.9 mph N/A   Overcast
4:53 PM 37.0 °F 26.7 °F 30.9 °F 79% 29.89 in 10.0 mi NW 19.6 mph 25.3 mph N/A   Overcast
5:53 PM 35.6 °F 24.5 °F 28.4 °F 75% 29.94 in 8.0 mi NW 20.7 mph - N/A   Overcast
6:53 PM 34.0 °F 24.2 °F 28.0 °F 79% 30.00 in 8.0 mi NW 15.0 mph 26.5 mph N/A   Overcast
7:53 PM 33.1 °F 23.0 °F 27.0 °F 78% 30.06 in 10.0 mi NNW 15.0 mph - N/A   Overcast
9:53 PM 32.0 °F 21.2 °F 25.0 °F 75% 30.12 in 9.0 mi North 16.1 mph - N/A   Overcast
10:53 PM 32.0 °F 20.1 °F 24.8 °F 75% 30.14 in 10.0 mi North 19.6 mph 27.6 mph N/A   Overcast
11:53 PM 30.9 °F 19.8 °F 26.1 °F 82% 30.17 in 8.0 mi North 16.1 mph 21.9 mph N/A   Overcast